Flag for U.S.A. Weather past 2 weeks in Springfield, Massachusetts, U.S.A.

52 °F

Passing clouds.

Feels Like: 47 °F
Forecast: 39 / 58 °F
Wind: 16 mph from Northwest

Location: Barnes Municipal Airport

Current Time: Oct 10, 2015 at 5:05:48 AM

Latest Report: Oct 10, 2015 at 2:53 AM

Visibility: 10 mi

Pressure: 29.95 "Hg

Humidity: 64%

Dew point: 40 °F

Location of SpringfieldLocation

Historic Weather in Springfield — Graph


Springfield temperature yesterday

Maximum temperature yesterday: 67 °F (at 11:53 AM)
Minimum temperature yesterday: 46 °F (at 12:53 AM)
Average temperature yesterday: 58 °F

Past Weeks' High & Low Weather Summary

High82 °F (Sep 29, 3:53 PM)97% (Sep 27, 6:53 AM)30.53 "Hg (Sep 27, 6:53 AM)
Low38 °F (Sep 27, 3:59 AM)29% (Sep 27, 3:53 PM)29.63 "Hg (Sep 30, 9:53 AM)
Average57 °F74%30.18 "Hg
* Reported Sep 25 2:53 AM — Oct 10 2:53 AM, Springfield, Weather by CustomWeather, © 2015

Note: Actual official high and low records may vary slightly from our data, if they occured in-between our weather recording intervals... More about our weather records


Springfield weather history for previous 24 hours

Time TempWeatherWind HumidityBarometerVisibility
2:53 AM
Sat, Oct 10
52 °FPassing clouds.16 mph64%29.95 "Hg10 mi
1:53 AM52 °FPassing clouds.17 mph69%29.93 "Hg10 mi
12:53 AM57 °FPassing clouds.14 mph69%29.87 "Hg10 mi
11:53 PM
Fri, Oct 9
60 °FPassing clouds.12 mph75%29.83 "Hg10 mi
10:53 PM60 °FPassing clouds.17 mph78%29.81 "Hg10 mi
9:53 PM61 °FPassing clouds.8 mph75%29.81 "Hg10 mi
8:53 PM61 °FPassing clouds.12 mph81%29.79 "Hg10 mi
7:53 PM61 °FOvercast.5 mph93%29.78 "Hg10 mi
6:53 PM62 °FOvercast.5 mph90%29.73 "Hg10 mi
5:53 PM62 °FLight rain. Overcast.5 mph90%29.72 "Hg9 mi
5:00 PM65 °FHeavy rain. Fog.23 mph91%29.75 "Hg2 mi
3:53 PM67 °FLight rain. Overcast.7 mph85%29.75 "Hg3 mi
2:53 PM67 °FMostly cloudy.6 mph85%29.75 "Hg4 mi
1:56 PM66 °FLight rain. Mostly cloudy.9 mph84%29.79 "Hg2 mi
12:53 PM67 °FLight rain. Overcast.14 mph76%29.81 "Hg3 mi
11:53 AM67 °FOvercast.14 mph73%29.84 "Hg10 mi
10:53 AM65 °FOvercast.15 mph78%29.88 "Hg10 mi
9:53 AM61 °FMostly cloudy.10 mph83%29.91 "Hg10 mi
8:53 AM55 °FLow clouds.6 mph90%29.95 "Hg10 mi
7:53 AM52 °FMostly cloudy.3 mph89%29.98 "Hg10 mi
6:53 AM50 °FOvercast.3 mph93%29.99 "Hg10 mi
5:53 AM51 °FOvercast.No wind89%30.02 "Hg10 mi
Weather by CustomWeather, © 2015

See weather overviewHow to use our weather pages